EW7342 Weather Reports


time (UTC)temp
F
wind
direction
speed
knots
gust
knots
rain 1hr
in
rain 24hr
in
rain mn
in
humidity
%
barometer
mb
20260906072018 72 0.0 0.0 0.00 0.00 0.00 97 1011.8
20260906071018 72 0.0 0.0 0.00 0.00 0.00 97 1011.8
20260906070018 72 0.0 0.0 0.00 0.00 0.00 97 1011.9
20260906065019 72 0.0 0.0 0.00 0.00 0.00 97 1011.9
20260906064019 73 0.0 0.0 0.00 0.00 0.00 96 1012.1
20260906063019 73 0.0 0.0 0.00 0.00 0.00 96 1012.1
20260906062019 73 0.0 0.0 0.00 0.00 0.00 97 1012.4
20260906061019 73 0.0 0.0 0.00 0.00 0.00 97 1012.5
20260906060040 73 0.0 0.0 0.00 0.00 0.00 96 1012.5
20260906055020 73 0.0 0.0 0.00 0.00 0.00 97 1012.5
20260906054020 73 0.0 0.0 0.00 0.00 0.00 96 1012.7
20260906053020 73 0.0 0.0 0.00 0.00 0.00 96 1012.8
20260906052020 73 0.0 0.0 0.00 0.00 0.00 96 1013.0
20260906051020 73 0.0 0.0 0.00 0.00 0.00 96 1013.0
20260906050041 73 0.0 0.0 0.00 0.00 0.00 96 1012.9
20260906045021 73 0.0 0.0 0.00 0.00 0.00 95 1013.0
20260906044021 73 0.0 0.0 0.00 0.00 0.00 95 1013.1
20260906043021 73 0.0 0.0 0.00 0.00 0.00 95 1013.2
20260906042021 73 0.0 0.0 0.00 0.00 0.00 94 1013.3
20260906041021 73 0.0 0.0 0.00 0.00 0.00 93 1013.3
20260906040021 74 0.0 0.0 0.00 0.00 0.00 93 1013.4
20260906035042 74 0.0 0.0 0.00 0.00 0.00 92 1013.5
20260906034022 74 0.0 0.0 0.00 0.00 0.00 92 1013.3
20260906033044 74 0.0 0.0 0.00 0.00 0.00 92 1013.3
20260906032022 74 0.0 0.0 0.00 0.00 0.00 92 1013.3
20260906031042 74 0.0 0.0 0.00 0.00 0.00 91 1013.3
20260906030023 74 0.0 0.0 0.00 0.00 0.00 91 1013.3
20260906025043 75 0.0 0.0 0.00 0.00 0.00 90 1013.1
20260906024023 74 0.0 0.0 0.00 0.00 0.00 90 1013.1
20260906023023 74 0.0 0.0 0.00 0.00 0.00 91 1013.0
20260906022023 74 0.0 0.0 0.00 0.00 0.00 90 1013.0
20260906021023 75 0.0 0.0 0.00 0.00 0.00 89 1012.9
20260906020023 75 0.0 0.0 0.00 0.00 0.00 88 1012.9
20260906015044 76 0.0 0.0 0.00 0.00 0.00 87 1013.0
20260906014024 76 0.0 0.0 0.00 0.00 0.00 86 1012.9
20260906013018 76 0.0 0.0 0.00 0.00 0.00 86 1012.9
20260906012018 76 0.0 0.0 0.00 0.00 0.00 86 1012.7
20260906011019 76 0.0 0.0 0.00 0.00 0.00 86 1012.6
20260906010018 77 0.0 0.0 0.00 0.00 0.00 84 1012.5
20260906005039 77 0.0 0.0 0.00 0.00 0.00 85 1012.5
20260906004016 77 0.0 0.0 0.00 0.00 0.00 83 1012.4
20260906003016 78 0.0 0.0 0.00 0.00 0.00 81 1012.5
20260906002019 78 0.0 0.0 0.00 0.00 0.00 81 1012.3
20260906001019 79 307 0.0 0.9 0.00 0.00 0.00 81 1012.3
20260906000037 79 0.0 0.0 0.00 0.00 0.00 78 1012.1
20260905235017 80 0.0 0.0 0.00 0.00 0.00 77 1012.0
20260905234017 81 0.0 0.0 0.00 0.00 0.00 76 1011.7
20260905233020 81 0.0 0.0 0.00 0.00 0.00 71 1011.5
20260905232017 81 0.0 0.0 0.00 0.00 0.00 70 1011.4
20260905231038 81 260 0.9 2.6 0.00 0.00 0.00 70 1011.5
20260905230018 81 264 0.0 1.7 0.00 0.00 0.00 71 1011.5
20260905225018 81 284 0.0 1.7 0.00 0.00 0.00 71 1011.5
20260905224038 81 0.0 0.0 0.00 0.00 0.00 70 1011.4
20260905223018 81 346 0.0 1.7 0.00 0.00 0.00 69 1011.3
20260905222018 81 300 0.0 2.6 0.00 0.00 0.00 70 1011.4
20260905221019 81 281 0.0 1.7 0.00 0.00 0.00 69 1011.5
20260905220019 80 352 0.9 2.6 0.00 0.00 0.00 69 1011.5
20260905215016 80 314 0.0 2.6 0.00 0.00 0.00 69 1011.6
20260905214019 80 321 0.0 1.7 0.00 0.00 0.00 71 1011.7
20260905213019 79 341 0.0 1.7 0.00 0.00 0.00 73 1012.0
20260905212019 78 0.0 0.0 0.00 0.00 0.00 75 1012.3
20260905211016 78 0.0 0.0 0.00 0.00 0.00 79 1012.5
20260905210017 78 0.0 0.0 0.00 0.00 0.00 80 1012.6
20260905205020 78 354 0.0 2.6 0.00 0.00 0.00 79 1012.4
20260905204017 79 306 0.0 1.7 0.00 0.00 0.00 79 1012.4
20260905203017 81 0.0 0.0 0.00 0.00 0.00 79 1012.2
20260905202037 82 282 0.0 2.6 0.00 0.00 0.00 74 1012.3
20260905201038 83 271 1.7 2.6 0.00 0.00 0.00 70 1012.4
20260905200018 84 264 1.7 2.6 0.00 0.00 0.00 67 1012.6
20260905195038 87 265 1.7 1.7 0.00 0.00 0.00 65 1012.2
20260905194018 90 347 0.0 2.6 0.00 0.00 0.00 62 1011.6
20260905193018 94 48 4.3 7.0 0.00 0.00 0.00 53 1011.0
20260905192019 94 41 4.3 6.1 0.00 0.00 0.00 50 1011.2
20260905191019 95 33 4.3 5.2 0.00 0.00 0.00 49 1011.1
20260905190019 96 14 3.5 4.3 0.00 0.00 0.00 47 1011.1
20260905185019 97 31 2.6 4.3 0.00 0.00 0.00 45 1011.4
20260905184016 96 29 3.5 6.1 0.00 0.00 0.00 48 1011.4
20260905183019 97 26 3.5 7.0 0.00 0.00 0.00 46 1011.5
20260905182039 97 28 2.6 6.1 0.00 0.00 0.00 46 1011.7
20260905181019 98 38 2.6 3.5 0.00 0.00 0.00 49 1012.0
20260905180017 97 25 2.6 6.1 0.00 0.00 0.00 50 1012.2
20260905175017 96 35 2.6 4.3 0.00 0.00 0.00 52 1012.5
20260905174020 94 42 3.5 6.1 0.00 0.00 0.00 56 1012.8
20260905173020 96 35 3.5 5.2 0.00 0.00 0.00 53 1012.8
20260905172018 96 46 2.6 7.0 0.00 0.00 0.00 54 1013.0
20260905171018 95 34 3.5 5.2 0.00 0.00 0.00 54 1013.1
20260905170017 95 55 2.6 5.2 0.00 0.00 0.00 55 1013.4
20260905165018 93 40 2.6 5.2 0.00 0.00 0.00 58 1013.5
20260905164018 93 106 1.7 4.3 0.00 0.00 0.00 59 1013.6
20260905163018 93 62 2.6 7.0 0.00 0.00 0.00 60 1013.8
20260905162019 93 54 2.6 7.8 0.00 0.00 0.00 60 1013.9
20260905161038 92 39 4.3 7.0 0.00 0.00 0.00 63 1014.0
20260905160019 91 39 4.3 7.0 0.00 0.00 0.00 65 1014.1
20260905155019 90 210 2.6 8.7 0.00 0.00 0.00 67 1014.1
20260905154039 89 54 3.5 7.8 0.00 0.00 0.00 70 1014.3
20260905153019 89 298 4.3 7.0 0.00 0.00 0.00 71 1014.3
20260905152019 88 235 2.6 5.2 0.00 0.00 0.00 72 1014.3
20260905151020 86 210 1.7 3.5 0.00 0.00 0.00 75 1014.3
20260905150019 85 234 0.9 2.6 0.00 0.00 0.00 76 1014.3
20260905145019 84 185 0.0 1.7 0.00 0.00 0.00 79 1014.4
20260905144020 84 183 0.0 0.9 0.00 0.00 0.00 79 1014.4
20260905143020 83 216 0.9 2.6 0.00 0.00 0.00 80 1014.5
20260905142020 82 221 1.7 3.5 0.00 0.00 0.00 81 1014.5
20260905141020 82 242 0.0 1.7 0.00 0.00 0.00 83 1014.5
20260905140020 81 228 0.9 3.5 0.00 0.00 0.00 84 1014.5
20260905135021 80 220 1.7 3.5 0.00 0.00 0.00 85 1014.6
20260905134041 79 213 0.0 3.5 0.00 0.00 0.00 86 1014.7
20260905133021 79 0.0 0.0 0.00 0.00 0.00 87 1014.7
20260905132021 79 0.0 0.0 0.00 0.00 0.00 87 1014.8
20260905131021 78 200 0.9 1.7 0.00 0.00 0.00 87 1014.8
20260905130101 78 182 0.0 3.5 0.00 0.00 0.00 88 1014.9
20260905125022 77 196 0.9 1.7 0.00 0.00 0.00 89 1015.0
20260905124021 77 0.0 0.0 0.00 0.00 0.00 90 1014.9
20260905123022 77 0.0 0.0 0.00 0.00 0.00 90 1014.8
20260905122042 76 198 0.0 1.7 0.00 0.00 0.00 91 1014.8
20260905121022 76 0.0 0.0 0.00 0.00 0.00 92 1014.8
20260905120022 76 0.0 0.0 0.00 0.00 0.00 92 1014.8
20260905115022 75 0.0 0.0 0.00 0.00 0.00 93 1014.7
20260905114022 75 0.0 0.0 0.00 0.00 0.00 94 1014.7
20260905113023 75 0.0 0.0 0.00 0.00 0.00 94 1014.6
20260905112023 75 220 0.0 1.7 0.00 0.00 0.00 94 1014.4
20260905111023 75 0.0 0.0 0.00 0.00 0.00 94 1014.1
20260905110023 75 0.0 0.0 0.00 0.00 0.00 94 1013.9
20260905105023 75 0.0 0.0 0.00 0.00 0.00 94 1013.8
20260905104024 75 0.0 0.0 0.00 0.00 0.00 93 1013.8
20260905103024 76 0.0 0.0 0.00 0.00 0.00 92 1013.6
20260905102024 76 0.0 0.0 0.00 0.00 0.00 92 1013.5
20260905101024 76 0.0 0.0 0.00 0.00 0.00 91 1013.3
20260905100024 76 0.0 0.0 0.00 0.00 0.00 90 1013.2
20260905095024 77 0.0 0.0 0.00 0.00 0.00 90 1013.3
20260905094024 77 0.0 0.0 0.00 0.00 0.00 89 1013.2
20260905093045 77 227 0.0 1.7 0.00 0.00 0.00 89 1013.2
20260905092025 77 0.0 0.0 0.00 0.00 0.00 89 1013.3
20260905091025 77 0.0 0.0 0.00 0.00 0.00 89 1013.3
20260905090045 77 0.0 0.0 0.00 0.00 0.00 89 1013.5
20260905085025 77 0.0 0.0 0.00 0.00 0.00 89 1013.5
20260905084045 77 0.0 0.0 0.00 0.00 0.00 88 1013.6
20260905083026 78 0.0 0.0 0.00 0.00 0.00 87 1013.8
20260905082046 78 0.0 0.0 0.00 0.00 0.00 88 1013.8
20260905081026 78 0.0 0.0 0.00 0.00 0.00 87 1013.9
20260905080046 78 0.0 0.0 0.00 0.00 0.00 87 1014.1
20260905075026 78 0.0 0.0 0.00 0.00 0.00 87 1014.1
20260905074027 78 0.0 0.0 0.00 0.00 0.00 88 1014.0
20260905073027 78 0.0 0.0 0.00 0.00 0.00 88 1014.0